Location: Unspecified
(35.6961°N, 0.0000°E)
Time: 22:24:53
(UTC+00:00)

S-56A Canister/Altair - Pass Details

Date: 01 June 2019
Orbit: 633 x 2499 km, 38.9° (Epoch: 23 June)

Event Time Altitude Azimuth Distance (km) Brightness Sun altitude
Rises 03:34:16 0° 288° (WNW) 3,595 10.6 -12.9°
Reaches altitude 10° 03:36:28 10° 285° (WNW) 2,828 10.1 -12.5°
Maximum altitude 03:43:22 68° 204° (SSW) 1,448 8.7 -11.4°
Drops below altitude 10° 03:54:02 10° 124° (SE) 4,251 11.6 -9.7°
Sets 03:58:06 0° 123° (ESE) 5,515 12.2 -9.0°
